Location: Arrien
(42.8963°N, 1.0429°E)
Time: 15:22:52
(UTC+00:00)

Cosmos 1867 - Pass Details

Date: 11 December 2025
Orbit: 777 x 797 km, 65.0° (Epoch: 19 January)

Event Time Altitude Azimuth Distance (km) Brightness Sun altitude
Rises 17:08:23 0° 329° (NNW) 3,308 6.9 -8.4°
Reaches altitude 10° 17:10:52 10° 333° (NNW) 2,375 6.1 -8.9°
Maximum altitude 17:16:16 58° 53° (NE) 926 3.6 -9.8°
Drops below altitude 10° 17:21:37 10° 132° (SE) 2,357 5.8 -10.7°
Sets 17:24:04 0° 136° (SE) 3,280 6.5 -11.1°
